Regional Weather Roundup
Issued by NWS

Home | Current Version | Previous Version | Text Only | Print | Product List | Glossary On
Versions: 1 2 3 4 5 6 7 8 9 10 11 12 13 14 15 16 17 18 19 20 21 22 23 24 25 26 27 28 29 30 31 32 33 34 35 36 37 38 39 40 41 42 43 44 45 46 47 48 49 50
000
ASUS44 KLIX 220912
RWRLA
LOUISIANA WEATHER ROUNDUP
NATIONAL WEATHER SERVICE NEW ORLEANS LA
300 AM CST THU FEB 22 2018

NOTE: "FAIR" INDICATES FEW OR NO CLOUDS BELOW 12,000 FEET WITH NO
      SIGNIFICANT WEATHER AND/OR OBSTRUCTIONS TO VISIBILITY.
      SKY/WX - SKY CONDITION AND SIGNIFICANT WEATHER.
      TMP - AIR TEMPERATURE.    DP   - DEWPOINT TEMPERATURE.
      RH  - RELATIVE HUMIDITY.  PRES - PRESSURE.
      HX  - HEAT INDEX.         WCI  - WIND CHILL INDEX.

*  THESE STATIONS ARE NOT NWS OR FAA STATIONS AND ARE NOT UNDER
   NWS QUALITY CONTROL.

LAZ040-048-061>063-065-066-069-221000-
SOUTHEAST LOUISIANA

CITY           SKY/WX    TMP DP  RH WIND       PRES   REMARKS
N.O. INTL ARPT FAIR      73  72  96 SE7       30.24F
N.O. LAKEFRONT CLOUDY    73  71  93 SE8       30.25S FOG
N.O. DOWNTOWN* CLOUDY    73  71  93 VRB5      30.25F
RESERVE*       FAIR      73  70  91 S5        30.24S FOG
SLIDELL        CLOUDY    72  70  93 SE5       30.25S
BATON ROUGE    CLOUDY    73  69  87 SE7       30.22S FOG
BOOTHVILLE     CLOUDY    69  68  96 SE3       30.26F FOG
BELLE CHASSE   CLOUDY    71  71 100 SE6       30.24F
BOGALUSA*      CLOUDY    75  69  81 S7        30.26S
GALLIANO*      PTSUNNY   74  70  87 SE6       30.23F
NEW ROADS*     PTSUNNY   72  68  89 S6        30.22S
GONZALES*      CLOUDY    74  70  89 S7        30.22S
HAMMOND*       CLOUDY    72  70  94 SE7       30.24S FOG
HOUMA*         CLOUDY    74  72  93 SE8       30.23S FOG
PORT FOURCHON* SUNNY     73  72  94 SE7       30.24S FOG

$$

LAZ041-044-053-054-221000-
SOUTHWEST LOUISIANA

CITY           SKY/WX    TMP DP  RH WIND       PRES   REMARKS
LAKE CHARLES   CLOUDY    73  71  93 S8        30.18R
LAFAYETTE      CLOUDY    74  72  93 S10       30.20S
PATTERSON      CLOUDY    73  72  96 SE8       30.22F
SALT POINT       N/A     69  69 100 SE8       30.19F
NEW IBERIA     CLOUDY    73  70  90 S14       30.20F
CHENAULT AIRPK CLOUDY    73  71  94 S8        30.19R

$$

LAZ027-028-221000-
CENTRAL LOUISIANA

CITY           SKY/WX    TMP DP  RH WIND       PRES   REMARKS
FORT POLK      CLOUDY    58  57  97 NE5       30.19S
ALEXANDRIA INT LGT RAIN  59  58  96 N6        30.19R
ALEXANDRIA     LGT RAIN  58  58 100 VRB3      30.21R

$$

LAZ001-002-221000-
NORTHWEST LOUISIANA

CITY           SKY/WX    TMP DP  RH WIND       PRES   REMARKS
SHREVEPORT     CLOUDY    50  50 100 N5        30.23R THUNDER
BARKSDALE AFB  CLOUDY    50  49  98 N5        30.22F
DTN SHREVEPORT CLOUDY    51  48  89 MISG        N/A

$$

LAZ014-016-221000-
NORTHEAST LOUISIANA

CITY           SKY/WX    TMP DP  RH WIND       PRES   REMARKS
MONROE         CLOUDY    51  51 100 N8        30.23F
TALLULAH       LGT RAIN  58  58 100 N3        30.24S

$$




USA.gov is the U.S. government's official web portal to all federal, state and local government web resources and services.